SWR78Y LEVC-LSZH

Flight info

Callsign SWR78Y
Flight time N/A
Altitude 36000
Route SOPET5B SOPET M985 EBROX DCT PEXOT M985 BCN N870 DALIN DCT PIVUS DCT DIBER DCT ADITA DCT MAXIR DCT LUSOL DCT BODRU DCT OKTET DCT IRMAR/N0459F320 DCT KINES DCT VANAS DCT MOBLO DCT UBIMA DCT SOSAL DCT KORED/N0438F260 N871 BERSU BERSU2G
Aircraft A320/M-SDE3FGHIRWY/LB1

Departure

Time N/A
Airport Valencia Airport (LEVC)

Arrival

Time 2026-04-30 14:34
Airport Zürich Airport (LSZH)
Time Latitude Longitude Altitude Speed Heading
2026-04-30 13:52 44.12186 6.31791 36175 ft 458 kts 24°
2026-04-30 13:52 44.15016 6.33741 36175 ft 458 kts 24°
2026-04-30 13:52 44.20718 6.37679 36175 ft 458 kts 24°
2026-04-30 13:53 44.26436 6.41629 36188 ft 458 kts 24°
2026-04-30 13:53 44.32152 6.45581 36188 ft 458 kts 24°
2026-04-30 13:54 44.37858 6.49545 36196 ft 457 kts 23°
2026-04-30 13:54 44.43548 6.53504 36196 ft 456 kts 23°
2026-04-30 13:55 44.49224 6.57459 36211 ft 455 kts 23°
2026-04-30 13:55 44.54898 6.61410 36208 ft 455 kts 23°
2026-04-30 13:56 44.60558 6.65369 36208 ft 454 kts 23°
2026-04-30 13:56 44.66208 6.69328 36239 ft 454 kts 23°
2026-04-30 13:57 44.71817 6.73275 36240 ft 454 kts 24°
2026-04-30 13:57 44.77511 6.77072 36237 ft 450 kts 16°
2026-04-30 13:58 44.86656 6.78596 36228 ft 441 kts 354°
2026-04-30 13:59 44.92783 6.78183 36226 ft 441 kts 355°
2026-04-30 13:59 44.98912 6.77788 36231 ft 441 kts 355°
2026-04-30 14:00 45.05048 6.77397 36235 ft 441 kts 355°
2026-04-30 14:00 45.14247 6.76799 36210 ft 441 kts 355°
2026-04-30 14:01 45.20380 6.76380 36211 ft 441 kts 355°
2026-04-30 14:01 45.26504 6.75967 36202 ft 440 kts 355°
2026-04-30 14:02 45.32585 6.75573 36196 ft 440 kts 355°
2026-04-30 14:02 45.38701 6.75170 36209 ft 440 kts 355°
2026-04-30 14:03 45.44821 6.74755 36206 ft 440 kts 355°
2026-04-30 14:03 45.50929 6.74337 36203 ft 439 kts 355°
2026-04-30 14:04 45.57042 6.73910 36192 ft 439 kts 355°
2026-04-30 14:04 45.63141 6.73485 36202 ft 439 kts 356°
2026-04-30 14:05 45.69244 6.73063 36173 ft 439 kts 356°
2026-04-30 14:05 45.75350 6.72641 36174 ft 440 kts 356°
2026-04-30 14:06 45.84488 6.72018 36172 ft 440 kts 356°
2026-04-30 14:07 45.93672 6.71393 36160 ft 441 kts 356°
2026-04-30 14:08 46.02865 6.70775 36167 ft 441 kts 357°
2026-04-30 14:08 46.12075 6.70414 36167 ft 441 kts
2026-04-30 14:09 46.18057 6.72395 36165 ft 442 kts 16°
2026-04-30 14:10 46.26918 6.76157 36155 ft 442 kts 16°
2026-04-30 14:10 46.32822 6.78646 36165 ft 442 kts 16°
2026-04-30 14:11 46.38697 6.81128 36181 ft 442 kts 16°
2026-04-30 14:11 46.44603 6.83638 36189 ft 442 kts 17°
2026-04-30 14:12 46.50515 6.86175 36206 ft 442 kts 18°
2026-04-30 14:12 46.55975 6.90148 36207 ft 440 kts 36°
2026-04-30 14:13 46.60277 6.96451 36210 ft 440 kts 50°
2026-04-30 14:13 46.64122 7.03378 36202 ft 439 kts 50°
2026-04-30 14:14 46.67956 7.10306 36198 ft 439 kts 50°
2026-04-30 14:14 46.71785 7.17243 36191 ft 439 kts 50°
2026-04-30 14:15 46.75584 7.24145 36172 ft 439 kts 50°
2026-04-30 14:15 46.79427 7.31133 36180 ft 438 kts 50°
2026-04-30 14:16 46.83214 7.38033 36190 ft 438 kts 50°
2026-04-30 14:16 46.85113 7.41504 35943 ft 436 kts 50°
2026-04-30 14:16 46.87004 7.44966 35691 ft 435 kts 50°
2026-04-30 14:16 46.88888 7.48421 35444 ft 435 kts 50°
2026-04-30 14:17 46.90765 7.51874 35206 ft 434 kts 51°
2026-04-30 14:17 46.92644 7.55341 34959 ft 434 kts 51°
2026-04-30 14:17 46.94512 7.58795 34713 ft 433 kts 51°
2026-04-30 14:17 46.96377 7.62245 34470 ft 431 kts 51°
2026-04-30 14:18 46.98236 7.65688 34240 ft 430 kts 51°
2026-04-30 14:18 47.00099 7.69137 33281 ft 434 kts 51°
2026-04-30 14:18 47.03840 7.76066 31848 ft 432 kts 52°
2026-04-30 14:19 47.07580 7.82985 30605 ft 434 kts 52°
2026-04-30 14:19 47.09451 7.86461 29708 ft 432 kts 52°
2026-04-30 14:19 47.11284 7.89878 27813 ft 433 kts 52°
2026-04-30 14:20 47.13070 7.93365 26719 ft 420 kts 56°
2026-04-30 14:20 47.14510 7.97068 25611 ft 417 kts 64°
2026-04-30 14:20 47.16957 8.04777 23699 ft 417 kts 64°
2026-04-30 14:21 47.18190 8.08637 22793 ft 416 kts 64°
2026-04-30 14:21 47.19435 8.12470 21847 ft 415 kts 61°
2026-04-30 14:21 47.23423 8.18363 19654 ft 408 kts 28°
2026-04-30 14:22 47.26124 8.19642 18065 ft 411 kts
2026-04-30 14:22 47.31508 8.18201 16618 ft 379 kts 337°
2026-04-30 14:22 47.33863 8.16557 15707 ft 371 kts 336°
2026-04-30 14:23 47.38406 8.13224 13799 ft 360 kts 335°
2026-04-30 14:23 47.42808 8.09906 11716 ft 351 kts 335°
2026-04-30 14:24 47.47122 8.06711 9677 ft 342 kts 335°
2026-04-30 14:24 47.49242 8.05156 8739 ft 336 kts 335°
2026-04-30 14:25 47.53080 8.02298 8264 ft 288 kts 335°
2026-04-30 14:25 47.56793 8.01556 7018 ft 270 kts 22°
2026-04-30 14:26 47.59277 8.05259 6046 ft 251 kts 63°
2026-04-30 14:26 47.60105 8.07564 5984 ft 251 kts 63°
2026-04-30 14:26 47.61713 8.12136 5995 ft 244 kts 63°
2026-04-30 14:27 47.62486 8.14340 5995 ft 236 kts 63°
2026-04-30 14:27 47.63230 8.16468 5997 ft 230 kts 63°
2026-04-30 14:27 47.63951 8.18535 5996 ft 227 kts 63°
2026-04-30 14:28 47.64740 8.22965 5996 ft 229 kts 101°
2026-04-30 14:28 47.64190 8.25176 5638 ft 228 kts 113°
2026-04-30 14:28 47.63529 8.27269 5212 ft 217 kts 112°
2026-04-30 14:28 47.62887 8.29235 5044 ft 209 kts 113°
2026-04-30 14:29 47.61651 8.33037 4915 ft 200 kts 113°
2026-04-30 14:29 47.60644 8.36153 4904 ft 202 kts 115°
2026-04-30 14:30 47.57446 8.40945 3942 ft 177 kts 130°
2026-04-30 14:31 47.55705 8.43334 3473 ft 164 kts 130°
2026-04-30 14:31 47.54156 8.45455 3070 ft 141 kts 128°
2026-04-30 14:31 47.53456 8.46425 2874 ft 137 kts 127°
2026-04-30 14:32 47.52051 8.48255 2615 ft 133 kts 131°
2026-04-30 14:32 47.51372 8.49153 2351 ft 128 kts 126°
2026-04-30 14:32 47.50966 8.49793 2202 ft 129 kts 127°
2026-04-30 14:33 47.50304 8.50718 2072 ft 133 kts 129°
2026-04-30 14:33 47.48959 8.52578 1651 ft 133 kts 130°
2026-04-30 14:33 47.48284 8.53503 1489 ft 132 kts 130°
2026-04-30 14:34 47.47632 8.54393 1400 ft 116 kts 134°
2026-04-30 14:34 47.47143 8.55083 1385 ft 81 kts 137°
2026-04-30 14:34 47.46796 8.55545 1394 ft 52 kts 140°
2026-04-30 14:34 47.46546 8.55695 1409 ft 28 kts 173°
2026-04-30 14:35 47.46337 8.55826 1404 ft 15 kts 139°
2026-04-30 14:35 47.46251 8.55915 1410 ft 15 kts 148°
2026-04-30 14:35 47.46165 8.55996 1411 ft 15 kts 169°
2026-04-30 14:36 47.46037 8.55984 1407 ft 21 kts 186°
2026-04-30 14:36 47.45916 8.55944 1407 ft 14 kts 198°
2026-04-30 14:36 47.45834 8.55903 1410 ft 13 kts 199°
2026-04-30 14:36 47.45726 8.55871 1411 ft 17 kts 185°
2026-04-30 14:37 47.45609 8.55854 1409 ft 16 kts 186°
2026-04-30 14:37 47.45506 8.55819 1413 ft 15 kts 197°
2026-04-30 14:37 47.45434 8.55805 1412 ft 5 kts 186°
2026-04-30 14:37 47.45423 8.55803 1407 ft 0 kts 186°